Regional Weather Roundup
Issued by NWS

Home | Current Version | Previous Version | Text Only | Print | Product List | Glossary Off
Versions: 1 2 3 4 5 6 7 8 9 10 11 12 13 14 15 16 17 18 19 20 21 22 23 24 25 26 27 28 29 30 31 32 33 34 35 36 37 38 39 40 41 42 43 44 45 46 47 48 49 50

000
ASUS45 KBOU 271107
RWRCO

WEATHER ROUNDUP FOR COLORADO
NATIONAL WEATHER SERVICE DENVER/BOULDER CO
500 AM MDT WED MAY 27 2015

NOTE: "FAIR" INDICATES FEW OR NO CLOUDS BELOW 12000 FEET WITH NO
SIGNIFICANT WEATHER AND/OR OBSTRUCTIONS TO VISIBILITY.

COZ001>005-013-030-031-271200-
...NORTHWEST COLORADO...

CITY           SKY/WX    TMP DP  RH WIND       PRES   REMARKS
CRAIG          LGT RAIN  48  44  86 CALM      30.15R
HAYDEN         CLOUDY    46  41  81 CALM      30.16R
MEEKER         CLOUDY    46  44  93 CALM      30.16R
MOUNT WERNER   NOT AVBL
STEAMBOAT SPGS CLOUDY    44  43  97 CALM      30.17R
WALDEN         CLOUDY    41  36  81 SE3       30.20R
$$

COZ006>008-011-271200-
...WEST CENTRAL VALLEYS...

CITY           SKY/WX    TMP DP  RH WIND       PRES   REMARKS
GRAND JUNCTION CLEAR     46  46 100 E6        30.12R
MONTROSE       MOCLDY    46  43  89 CALM      30.18S
EAGLE          MOCLDY    43  43 100 CALM      30.19S
RIFLE          PTCLDY    45  42  89 CALM      30.15R
DELTA          CLOUDY    49  46  87 MISG      30.17R
NUCLA          PTCLDY    45  41  87 CALM      30.20S
$$

COZ017>023-064>068-271200-
...SOUTHWEST COLORADO...

CITY           SKY/WX    TMP DP  RH WIND       PRES   REMARKS
DURANGO        MOCLDY    43  41  93 NE5       30.21R
CORTEZ         PTCLDY    42  40  92 CALM      30.16R
PAGOSA SPRINGS PTCLDY    40  39  97 CALM      30.27S
TELLURIDE      MOCLDY    40  35  83 SE7       30.33R
WOLF CREEK PAS NOT AVBL
$$

COZ009-010-012-014-032>034-037-058>063-271200-
...CENTRAL COLORADO...

CITY           SKY/WX    TMP DP  RH WIND       PRES   REMARKS
ASPEN          NOT AVBL
BUENA VISTA    PTCLDY    38  34  87 CALM      30.23S
COPPER MTN     CLOUDY    37  30  75 SW10G18   30.36F
BERTHOUD PASS  CLOUDY    28  21  74 NW17G29   30.38S WCI  16
COTTONWOOD PAS PTCLDY    45  32  61 CALM      30.29S
GUNNISON       MOCLDY    39  36  87 E3        30.29S
KREMMLING      DRIZZLE   45  37  76 CALM      30.21R
LEADVILLE      CLOUDY    35  31  85 E5        30.28R WCI  31
SALIDA         MOCLDY    45  36  71 CALM      30.29R
SUNLIGHT       MOCLDY    36  34  93 CALM      30.34S
WILKERSON PASS CLEAR     32  30  93 SW8       30.36S WCI  25
$$

COZ069>075-271200-
...SAN LUIS VALLEY/SANGRE DE CRISTO MOUNTAINS...

CITY           SKY/WX    TMP DP  RH WIND       PRES   REMARKS
ALAMOSA        CLOUDY    39  36  89 CALM      30.25R
LA VETA PASS   CLEAR    N/A N/A N/A MISG      30.32S
SAGUACHE       MOCLDY    37  36  93 NW9       30.27R
$$

COZ035-036-038>040-271200-
...NORTHERN COLORADO FRONT RANGE...

CITY           SKY/WX    TMP DP  RH WIND       PRES   REMARKS
DENVER INTL AP MOCLDY    50  44  80 SW13      30.06S
DMNS CITY PARK   N/A     49  42  74 S3        30.07R
AURORA         PTCLDY    49  43  79 SW9       30.08R
FRONT RANGE AP MOCLDY    52  45  76 MISG      30.08R
ERIE MUNI ARPT PTCLDY    43  41  94 CALM      30.06S
BOULDER MUN AP PTCLDY    46  43  87 CALM      30.06S
CENTENNIAL     PTCLDY    47  41  80 CALM      30.09R
BROOMFIELD     PTCLDY    52  39  62 W5        30.07S
FORT COLLINS   PTCLDY    48  46  93 CALM      30.07S
LONGMONT       PTCLDY    46  43  91 S3        30.08S
$$

COZ041-046-047-076>085-087-088-271200-
...PIKES PEAK/PALMER DIVIDE AND SOUTHERN FOOTHILLS...

CITY           SKY/WX    TMP DP  RH WIND       PRES   REMARKS
COLO. SPRINGS  PTCLDY    45  42  89 N6        30.15R
A. F. ACADEMY  CLEAR     41  40  99 N6        30.15R
ELLICOTT       CLEAR    N/A N/A N/A CALM      30.14R
FALCON         CLEAR     44  41  89 W5        30.18R
FORT CARSON    NOT AVBL
LIMON          CLOUDY    50  46  86 SW7       30.10R
MONUMENT HILL    N/A     43  39  87 MISG      30.16R
TRINIDAD       CLEAR     47  43  86 NW3       30.14R
$$

COZ042>045-048>051-090-091-271200-
...NORTHEAST COLORADO...

CITY           SKY/WX    TMP DP  RH WIND       PRES   REMARKS
GREELEY ARPT   MOCLDY    48  46  93 NW3       30.05S
AKRON          MOCLDY    52  49  89 S8        30.05S
BURLINGTON     CLOUDY    55  50  83 S10       30.06F
WRAY           MOCLDY    52  52 100 E6        30.05S
STERLING       MOCLDY    48  48 100 CALM      30.04R
HOLYOKE        MOCLDY    54  50  87 SE8       30.05S
FORT MORGAN    MOCLDY    52  49  89 CALM      30.04F
$$

COZ086-089-092>099-271200-
...SOUTHEAST COLORADO...

CITY           SKY/WX    TMP DP  RH WIND       PRES   REMARKS
PUEBLO         CLEAR     48  47  96 N6        30.10S
LA JUNTA       PTCLDY    55  49  80 CALM      30.08F
LAMAR          CLOUDY    55  51  86 CALM      30.05R
SPRINGFIELD      N/A     50  48  93 W8        30.10S
$$


USA.gov is the U.S. government's official web portal to all federal, state and local government web resources and services.